[[{"header":{"parameterUnit":"m.s-1","parameterCategory":2,"la1":30.2991,"la2":30.254,"lo1":-89.0895,"lo2":-89.0444,"dy":0.0017,"dx":0.0017,"nx":28,"ny":28,"refTime":"2024-10-11T21:00:00:Z","depth":"0","parameterNumber":2,"parameterNumberName":"U-component_of_CURRENTS"},"data":[0,0,0,0,0,0,0,0,0,0,0,0,0,0,0,0,0,0,0,0,0,0,0,0,0,0,0,0,0,0,0,0,0,0,0,0,0,0,0,0,0,0,0,0,0,0,0,0,0,0,0,0,0,0,0,0,0,0,0.195,0.1951,0,0.1993,0.1994,0.1994,0.1988,0.1988,0.1987,0.1986,0.1976,0.1976,0.1976,0,0,0,0,0,0,0,0,0,0,0,0,0,0.1861,0.1863,0.195,0.1951,0.1951,0.1993,0.1994,0.1994,0.1988,0.1987,0.1987,0.1986,0.1976,0.1976,0.1976,0,0,0,0,0,0,0,0,0,0,0,0,0,0.19,0.1863,0.195,0.1955,0.1956,0.1993,0.1994,0.1994,0.1988,0.1987,0.1987,0.1986,0.1976,0.1976,0.1976,0.1994,0,0,0.1977,0.1977,0,0,0,0,0,0,0,0,0.1898,0.1903,0.1953,0.1955,0.1956,0.1986,0.1959,0.1992,0.1988,0.1974,0.1986,0.1986,0.1976,0.1977,0.1984,0.1994,0.1993,0.1977,0.1977,0.1978,0.1978,0,0,0,0,0,0,0,0.1895,0.1901,0.1965,0.1954,0.1956,0.1955,0.196,0.1965,0.1976,0.1975,0.1975,0.1984,0.1976,0.1984,0.1984,0.1993,0.1977,0.1978,0.1978,0.1978,0.2005,0.2005,0,0,0,0,0,0,0.1895,0.1899,0.1964,0.1966,0.1927,0.1958,0.1962,0.1976,0.1977,0.1978,0.1984,0.1983,0.1984,0.1983,0.1983,0.2009,0.1978,0.1978,0.1978,0.2004,0.2005,0.2005,0,0,0,0,0,0,0.1893,0.1901,0.1962,0.1935,0.1943,0.196,0.1975,0.1977,0.1987,0.1986,0.1984,0.1993,0.1983,0.1983,0.1995,0.2008,0.1978,0.1978,0.2003,0.2004,0.2005,0.2057,0,0,0,0,0,0,0.1891,0.19,0.1908,0.1935,0.1944,0.1991,0.1976,0.1978,0.1995,0.1994,0.1993,0.1991,0.1983,0.1994,0.1995,0.2008,0.1979,0.2003,0.2004,0.2005,0.2055,0.206,0.2064,0,0,0,0,0,0.1887,0.1905,0.1908,0.1916,0.1956,0.1992,0.1997,0.2005,0.1996,0.2009,0.2006,0.1991,0.2,0.1996,0.1996,0.2009,0.2002,0.2003,0.2005,0.2053,0.2059,0.2064,0,0,0,0,0,0,0.187,0.1907,0.1911,0.1939,0.1966,0.1992,0.2006,0.201,0.202,0.2015,0.2005,0.2004,0.2018,0.2007,0.2002,0.2018,0.1996,0.1997,0.2032,0.2038,0.2042,0.2033,0.1979,0,0,0,0,0,0.1871,0.1895,0.1928,0.195,0.1966,0.1986,0.2,0.2009,0.2023,0.2026,0.2025,0.2021,0.2024,0.2025,0.2026,0.2041,0.2076,0.2047,0.2051,0.2055,0.2047,0.2112,0.2122,0.2009,0.2009,0.2009,0,0,0.1871,0.1895,0.1907,0.1948,0.1968,0.1996,0.1993,0.2022,0.2034,0.2023,0.2037,0.204,0.2032,0.2048,0.2052,0.204,0.2117,0.2057,0.206,0.2049,0.2114,0.2126,0.2136,0.201,0.201,0.201,0,0,0.1887,0.1905,0.1931,0.1955,0.1992,0.2007,0.2017,0.2048,0.205,0.2072,0.2062,0.2072,0.2081,0.2077,0.2076,0.2104,0.214,0.2107,0.2123,0.2187,0.2197,0.2207,0.2321,0.234,0.2108,0.2108,0.2108,0,0.1884,0.1918,0.1943,0.1974,0.1988,0.2012,0.2035,0.2051,0.2078,0.2086,0.2079,0.2108,0.2091,0.2115,0.2114,0.2114,0.2179,0.2106,0.2196,0.2205,0.2214,0.2328,0.2348,0.2111,0.211,0.211,0.211,0,0.1922,0.1944,0.1963,0.2004,0.2023,0.2051,0.2073,0.2092,0.2098,0.2116,0.2147,0.2145,0.2167,0.2158,0.2138,0.2188,0.2229,0.2199,0.2187,0.2229,0.2347,0.2367,0.2114,0.2113,0.2113,0.2112,0,0,0.1927,0.1978,0.1983,0.1991,0.2038,0.2052,0.208,0.2112,0.2138,0.2163,0.2206,0.2195,0.2218,0.2215,0.2211,0.2238,0.2357,0.2242,0.2244,0.2366,0.256,0.2629,0.2658,0.2358,0.236,0.2362,0.2639,0,0.1947,0.1987,0.2012,0.2037,0.2053,0.2077,0.2101,0.2131,0.2163,0.2217,0.2232,0.2277,0.2237,0.2266,0.2291,0.2336,0.2404,0.2288,0.249,0.2497,0.256,0.2679,0.2701,0.2951,0.2659,0.2662,0.2664,0,0.1977,0.1993,0.2018,0.2038,0.2049,0.2067,0.2105,0.2135,0.2214,0.2248,0.2312,0.2355,0.2417,0.2371,0.2506,0.2446,0.2507,0.2537,0.2548,0.2599,0.2602,0.2849,0.2999,0.2913,0.2695,0.2693,0.2691,0,0.1954,0.1993,0.2,0.2011,0.2049,0.2056,0.2079,0.2143,0.2184,0.2291,0.2364,0.2449,0.2524,0.2593,0.2679,0.2612,0.2846,0.2767,0.2901,0.291,0.2956,0.2963,0.3046,0.2874,0.2874,0.2873,0.2872,0,0.1963,0.197,0.1987,0.1991,0.2,0.2034,0.2072,0.2116,0.2217,0.2302,0.2389,0.2493,0.258,0.2727,0.2764,0.2942,0.2944,0.2945,0.2989,0.2981,0.2986,0.2931,0.2826,0.2883,0.2881,0.2879,0.2877,0,0.1949,0.1965,0.1967,0.1985,0.199,0.1996,0.2061,0.212,0.2211,0.2338,0.2392,0.2573,0.2777,0.2902,0.3057,0.3086,0.3151,0.3267,0.3283,0.3322,0.3311,0.3207,0.321,0.3089,0.346,0.3464,0.3466,0,0.1954,0.1952,0.1947,0.1958,0.1968,0.1988,0.2032,0.2105,0.2184,0.2386,0.2469,0.2713,0.2885,0.3195,0.3327,0.3516,0.3316,0.3609,0.3441,0.3356,0.3273,0.3069,0.2947,0.3559,0.3562,0.3565,0.3567,0,0.1964,0.1953,0.1962,0.1979,0.2003,0.2011,0.2076,0.2117,0.2246,0.2362,0.2546,0.27,0.3066,0.3284,0.357,0.3663,0.345,0.3669,0.3571,0.3359,0.3153,0.3043,0.3355,0.3592,0.359,0.3588,0.3586,0.3585,0.1986,0.1991,0.2016,0.2017,0.2036,0.2043,0.2034,0.213,0.222,0.2377,0.2548,0.2768,0.3174,0.3579,0.3654,0.383,0.3622,0.3757,0.3654,0.3467,0.3279,0.367,0.3937,0.3937,0.3936,0.3936,0.3936,0,0.2043,0.2059,0.207,0.2058,0.2049,0.2057,0.2084,0.2075,0.2141,0.2358,0.2505,0.2929,0.3265,0.3563,0.3892,0.382,0.362,0.3731,0.343,0.3312,0.3712,0.3643,0.387,0.387,0.387,0.387,0.387,0.387,0.2096,0.2126,0.2108,0.208,0.2056,0.2009,0.1991,0.1989,0.2094,0.2287,0.2511,0.2738,0.3209,0.3692,0.383,0.3767,0.3387,0.3351,0.3159,0.3445,0.3437,0.3429,0.3341,0.3501,0.3501,0.2708,0.2702,0.2697]},{"header":{"parameterUnit":"m.s-1","parameterCategory":2,"la1":30.2991,"la2":30.254,"lo1":-89.0895,"lo2":-89.0444,"dy":0.0017,"dx":0.0017,"nx":28,"ny":28,"refTime":"2024-10-11T21:00:00:Z","depth":"0","parameterNumber":3,"parameterNumberName":"V-component_of_CURRENTS"},"data":[0,0,0,0,0,0,0,0,0,0,0,0,0,0,0,0,0,0,0,0,0,0,0,0,0,0,0,0,0,0,0,0,0,0,0,0,0,0,0,0,0,0,0,0,0,0,0,0,0,0,0,0,0,0,0,0,0,0,-0.0321,-0.0321,0,-0.0368,-0.0369,-0.0369,-0.0398,-0.0398,-0.0398,-0.0398,-0.0457,-0.0459,-0.046,0,0,0,0,0,0,0,0,0,0,0,0,0,-0.0292,-0.0292,-0.032,-0.0321,-0.0322,-0.0368,-0.0369,-0.0369,-0.0398,-0.0398,-0.0398,-0.0398,-0.0457,-0.0459,-0.046,0,0,0,0,0,0,0,0,0,0,0,0,0,-0.0319,-0.0292,-0.032,-0.0341,-0.0343,-0.0368,-0.0369,-0.037,-0.0397,-0.0398,-0.0398,-0.0398,-0.0456,-0.0458,-0.0461,-0.0472,0,0,-0.0468,-0.0469,0,0,0,0,0,0,0,0,-0.0317,-0.032,-0.0337,-0.034,-0.0342,-0.0377,-0.0381,-0.0404,-0.0397,-0.0377,-0.0398,-0.0398,-0.0431,-0.0435,-0.0445,-0.0475,-0.0477,-0.0468,-0.0469,-0.047,-0.0471,0,0,0,0,0,0,0,-0.0315,-0.0318,-0.034,-0.0338,-0.0341,-0.0361,-0.0364,-0.0385,-0.0403,-0.0379,-0.0381,-0.0386,-0.0433,-0.0442,-0.0446,-0.0478,-0.0468,-0.047,-0.0471,-0.0472,-0.0557,-0.0558,0,0,0,0,0,0,-0.0306,-0.0316,-0.0338,-0.0341,-0.0329,-0.0361,-0.0365,-0.0366,-0.0403,-0.0409,-0.0386,-0.0387,-0.0438,-0.0444,-0.0448,-0.0486,-0.047,-0.0472,-0.0474,-0.0556,-0.0558,-0.0559,0,0,0,0,0,0,-0.0306,-0.0308,-0.0336,-0.033,-0.0335,-0.0361,-0.0362,-0.0367,-0.0376,-0.0408,-0.0414,-0.039,-0.0439,-0.0445,-0.0473,-0.0487,-0.0473,-0.0475,-0.0555,-0.0557,-0.0558,-0.0546,0,0,0,0,0,0,-0.0304,-0.0307,-0.0303,-0.0329,-0.0335,-0.0347,-0.0362,-0.0367,-0.0378,-0.0381,-0.0413,-0.0419,-0.0439,-0.047,-0.0475,-0.049,-0.0477,-0.0554,-0.0556,-0.0558,-0.0545,-0.0547,-0.0548,0,0,0,0,0,-0.0303,-0.0292,-0.0303,-0.0306,-0.0329,-0.0347,-0.0352,-0.0372,-0.0378,-0.0381,-0.0409,-0.0418,-0.0485,-0.0472,-0.0479,-0.0494,-0.0553,-0.0556,-0.0558,-0.0545,-0.0547,-0.0548,0,0,0,0,0,0,-0.0269,-0.0294,-0.0307,-0.0302,-0.0323,-0.0352,-0.0352,-0.0369,-0.0393,-0.0394,-0.0425,-0.0433,-0.0466,-0.0481,-0.0466,-0.0526,-0.0523,-0.0526,-0.0511,-0.0513,-0.0514,-0.0453,-0.0479,0,0,0,0,0,-0.0262,-0.0264,-0.0293,-0.0288,-0.0297,-0.0325,-0.0334,-0.035,-0.0375,-0.0385,-0.0412,-0.0444,-0.048,-0.0495,-0.0525,-0.0551,-0.0519,-0.0568,-0.0569,-0.057,-0.0527,-0.0516,-0.0511,-0.0565,-0.0565,-0.0565,0,0,-0.0245,-0.026,-0.026,-0.0282,-0.0298,-0.0313,-0.0331,-0.0341,-0.0354,-0.0388,-0.0411,-0.0448,-0.0489,-0.0524,-0.054,-0.0537,-0.0538,-0.0573,-0.0573,-0.0528,-0.0517,-0.0511,-0.0506,-0.0567,-0.0566,-0.0566,0,0,-0.022,-0.0228,-0.0228,-0.0248,-0.0274,-0.0295,-0.0297,-0.033,-0.0342,-0.0373,-0.0407,-0.0442,-0.0495,-0.0524,-0.0547,-0.057,-0.0548,-0.0596,-0.055,-0.0542,-0.0536,-0.053,-0.0472,-0.0461,-0.0595,-0.0595,-0.0595,0,-0.0199,-0.0208,-0.023,-0.0242,-0.025,-0.0286,-0.029,-0.0313,-0.0352,-0.034,-0.0378,-0.0428,-0.049,-0.0503,-0.0535,-0.057,-0.0539,-0.0542,-0.0539,-0.0534,-0.0528,-0.047,-0.0458,-0.0595,-0.0595,-0.0595,-0.0595,0,-0.0187,-0.0196,-0.0195,-0.0224,-0.0234,-0.0242,-0.0276,-0.0282,-0.0306,-0.0317,-0.0328,-0.04,-0.0408,-0.047,-0.0521,-0.0517,-0.0498,-0.0543,-0.0525,-0.0521,-0.0461,-0.0449,-0.0594,-0.0594,-0.0594,-0.0594,0,0,-0.0136,-0.0178,-0.0179,-0.0177,-0.0225,-0.0218,-0.0235,-0.0234,-0.0178,-0.0256,-0.018,-0.032,-0.0317,-0.0342,-0.0404,-0.0431,-0.0409,-0.0472,-0.0472,-0.0393,-0.0338,-0.0322,-0.0307,-0.0454,-0.0452,-0.0451,-0.0307,0,-0.0121,-0.0134,-0.0158,-0.0152,-0.0157,-0.0178,-0.0159,-0.0158,-0.0151,-0.0084,-0.0153,-0.0115,-0.0279,-0.0251,-0.0317,-0.0364,-0.0377,-0.0439,-0.037,-0.0365,-0.0336,-0.0293,-0.0265,-0.0134,-0.0295,-0.0293,-0.0291,0,-0.0107,-0.0115,-0.0116,-0.0085,-0.0078,-0.0068,0.0006,0.0025,0.0088,0.0114,0.0125,0.0111,0.0077,-0.0051,-0.0134,-0.0161,-0.0241,-0.0302,-0.0299,-0.0267,-0.0327,-0.017,-0.0106,-0.035,-0.0272,-0.0274,-0.0275,0,-0.0064,-0.0072,-0.0063,-0.0068,-0.005,-0.0012,0.0027,0.0092,0.0193,0.0284,0.0399,0.0333,0.0378,0.0235,0.0069,-0.0011,0.0017,-0.0105,-0.0154,-0.0152,-0.01,-0.0097,-0.0241,-0.0138,-0.0139,-0.0139,-0.0139,0,-0.0045,-0.0026,-0.0031,-0.0026,0.007,0.0069,0.0224,0.0262,0.0418,0.06,0.0532,0.0669,0.0449,0.0426,0.0213,0.0101,0.013,-0.0097,-0.0108,-0.0097,-0.0095,-0.0285,-0.0437,-0.0134,-0.0135,-0.0136,-0.0137,0,0.0003,-0.0025,0.0012,0.0048,0.0084,0.0168,0.0364,0.0523,0.0621,0.0873,0.0933,0.097,0.0934,0.073,0.0562,0.0342,0.0086,0.0146,0.02,0.0191,-0.0132,-0.0283,-0.0343,-0.0451,0.0126,0.0127,0.0128,0,0.0032,0.0038,0.0088,0.0167,0.0195,0.0334,0.0488,0.0614,0.0811,0.1059,0.1221,0.1273,0.1328,0.1112,0.0763,0.0491,0.0202,0.0321,0.0131,-0.0102,-0.028,-0.0387,-0.0484,0.0216,0.0217,0.0219,0.022,0,0.0122,0.0126,0.0174,0.032,0.0462,0.0638,0.0853,0.1023,0.1231,0.1412,0.1647,0.1708,0.1546,0.1303,0.0944,0.0696,0.0155,0.034,0.0079,-0.0219,-0.0318,-0.0442,0.0095,0.0233,0.0231,0.023,0.023,0.0229,0.0236,0.03,0.0387,0.0533,0.0702,0.0947,0.1105,0.1344,0.1617,0.189,0.1938,0.2055,0.1729,0.1239,0.0897,0.0293,0.0236,0.0052,-0.01,-0.0176,-0.0333,0.0257,0.0371,0.037,0.037,0.0369,0.0369,0,0.0418,0.0492,0.0629,0.0807,0.1014,0.1064,0.1376,0.1533,0.1807,0.2056,0.2208,0.2175,0.1697,0.1177,0.0413,-0.006,-0.0282,-0.0344,-0.053,-0.0605,-0.0078,-0.0135,-0.0101,-0.0101,-0.0101,-0.01,-0.01,-0.01,0.0542,0.0698,0.0745,0.1067,0.1197,0.1457,0.1611,0.1805,0.2001,0.2254,0.2376,0.2465,0.2126,0.0719,-0.0303,-0.055,-0.0947,-0.0977,-0.1194,-0.0906,-0.0884,-0.0862,-0.0954,-0.1092,-0.1094,-0.1656,-0.1662,-0.1667]}],[{"header":{"parameterUnit":"m.s-1","parameterCategory":2,"la1":30.2991,"la2":30.254,"lo1":-89.0895,"lo2":-89.0444,"dy":0.0017,"dx":0.0017,"nx":28,"ny":28,"refTime":"2024-10-11T21:00:00:Z","depth":"2","parameterNumber":2,"parameterNumberName":"U-component_of_CURRENTS"},"data":[0,0,0,0,0,0,0,0,0,0,0,0,0,0,0,0,0,0,0,0,0,0,0,0,0,0,0,0,0,0,0,0,0,0,0,0,0,0,0,0,0,0,0,0,0,0,0,0,0,0,0,0,0,0,0,0,0,0,0.1805,0.1805,0,0.1869,0.187,0.1871,0.1931,0.1931,0.1932,0.1932,0.197,0.197,0.1971,0,0,0,0,0,0,0,0,0,0,0,0,0,0.1801,0.1801,0.1805,0.1805,0.1805,0.1869,0.187,0.1872,0.1931,0.1931,0.1932,0.1932,0.1969,0.197,0.1971,0,0,0,0,0,0,0,0,0,0,0,0,0,0.1832,0.18,0.1805,0.1839,0.1843,0.1869,0.187,0.1872,0.1931,0.1931,0.1932,0.1932,0.1969,0.197,0.1971,0.1968,0,0,0.1974,0.1975,0,0,0,0,0,0,0,0,0.183,0.1832,0.1834,0.1837,0.1841,0.1889,0.1883,0.1901,0.1931,0.1902,0.1932,0.1933,0.1937,0.194,0.1958,0.197,0.1971,0.1975,0.1975,0.1976,0.1976,0,0,0,0,0,0,0,0.1827,0.183,0.1835,0.1834,0.1838,0.1875,0.1879,0.1887,0.1919,0.1905,0.1908,0.1908,0.1939,0.1957,0.196,0.1972,0.1975,0.1975,0.1976,0.1977,0.2043,0.2044,0,0,0,0,0,0,0.1806,0.1828,0.1833,0.1836,0.1831,0.1874,0.1879,0.1876,0.192,0.1926,0.1907,0.191,0.1955,0.1958,0.1961,0.2018,0.1976,0.1977,0.1977,0.2042,0.2043,0.2045,0,0,0,0,0,0,0.1806,0.1806,0.183,0.183,0.1835,0.1872,0.1869,0.1877,0.1915,0.1921,0.1928,0.1938,0.1956,0.1959,0.1993,0.2017,0.1977,0.1978,0.2041,0.2042,0.2044,0.2093,0,0,0,0,0,0,0.1805,0.1805,0.1826,0.1828,0.1834,0.1876,0.1869,0.1878,0.191,0.1916,0.1949,0.1952,0.1956,0.1992,0.1995,0.2018,0.1979,0.2039,0.2041,0.2043,0.209,0.2096,0.2102,0,0,0,0,0,0.1805,0.1805,0.1826,0.1828,0.1851,0.1877,0.1886,0.1916,0.1912,0.1948,0.196,0.1952,0.2007,0.1994,0.1997,0.2021,0.2038,0.2041,0.2043,0.2088,0.2095,0.2102,0,0,0,0,0,0,0.1795,0.1811,0.1834,0.1837,0.1876,0.1886,0.1908,0.1925,0.1964,0.1969,0.1968,0.1974,0.2013,0.2009,0.1994,0.2046,0.202,0.2024,0.2053,0.206,0.2066,0.2047,0.198,0,0,0,0,0,0.1806,0.1823,0.1847,0.1854,0.1869,0.1895,0.1915,0.1943,0.196,0.198,0.1995,0.2008,0.2022,0.2035,0.2053,0.2079,0.2087,0.2095,0.2101,0.2106,0.2093,0.213,0.2138,0.2053,0.2053,0.2053,0,0,0.1796,0.1812,0.1819,0.1858,0.1878,0.192,0.191,0.1946,0.1983,0.1974,0.2024,0.2033,0.2035,0.2072,0.2088,0.2073,0.2143,0.2109,0.2114,0.2098,0.2134,0.2142,0.215,0.2055,0.2054,0.2054,0,0,0.1798,0.1806,0.184,0.1877,0.1929,0.1945,0.1959,0.1997,0.202,0.2065,0.2065,0.2086,0.2113,0.2122,0.2123,0.2167,0.2174,0.2178,0.2191,0.2229,0.2236,0.2242,0.2297,0.2307,0.2179,0.2179,0.2179,0,0.1817,0.1839,0.1856,0.1907,0.1925,0.1956,0.1998,0.2029,0.2079,0.2087,0.2091,0.2127,0.2131,0.2157,0.2171,0.218,0.2208,0.2166,0.2236,0.2242,0.2248,0.2302,0.2313,0.2182,0.2181,0.2181,0.2181,0,0.1854,0.1886,0.1895,0.1971,0.1998,0.2033,0.2068,0.2106,0.2119,0.2144,0.218,0.2192,0.2209,0.2217,0.2202,0.2244,0.2257,0.2243,0.2218,0.2259,0.2314,0.2325,0.2185,0.2184,0.2184,0.2183,0,0,0.187,0.1923,0.1932,0.196,0.2033,0.2046,0.2096,0.2138,0.2165,0.2209,0.2237,0.2251,0.2257,0.2258,0.2259,0.2278,0.2349,0.2274,0.2275,0.2327,0.2455,0.2443,0.2453,0.2354,0.2355,0.2356,0.249,0,0.1913,0.1978,0.2002,0.2055,0.2077,0.2109,0.2147,0.2188,0.2219,0.2264,0.2267,0.2305,0.2276,0.2295,0.231,0.2342,0.2374,0.2315,0.2407,0.2409,0.2391,0.2463,0.2229,0.2326,0.25,0.2502,0.2503,0,0.1956,0.1984,0.2033,0.2066,0.208,0.2123,0.2157,0.2208,0.2269,0.2294,0.2329,0.2351,0.2389,0.2359,0.2431,0.2401,0.2426,0.2443,0.2449,0.2417,0.2415,0.2306,0.2338,0.2521,0.2519,0.2518,0.2517,0,0.1925,0.1998,0.2018,0.2039,0.2098,0.2114,0.2151,0.2211,0.2245,0.2326,0.2366,0.2416,0.2458,0.2489,0.2525,0.2491,0.2612,0.2574,0.2589,0.259,0.2395,0.2376,0.2622,0.2622,0.2621,0.2621,0.262,0,0.1944,0.1961,0.2003,0.2017,0.2045,0.2092,0.214,0.2188,0.2266,0.2334,0.2383,0.2451,0.249,0.2562,0.2573,0.2632,0.2662,0.2605,0.2623,0.2411,0.2392,0.2547,0.2536,0.2626,0.2625,0.2624,0.2623,0,0.1912,0.1945,0.1965,0.2014,0.203,0.2049,0.2128,0.218,0.2254,0.235,0.2381,0.2494,0.2613,0.2659,0.2742,0.2706,0.2754,0.2762,0.2524,0.251,0.2695,0.2686,0.2794,0.2795,0.2795,0.2796,0.2796,0,0.1908,0.1912,0.1947,0.1972,0.2002,0.2041,0.2092,0.2163,0.2228,0.2385,0.2439,0.258,0.2661,0.2783,0.276,0.2798,0.2842,0.2609,0.248,0.2706,0.2713,0.2703,0.2693,0.2258,0.2254,0.2251,0.2248,0,0.1901,0.1907,0.1929,0.197,0.2013,0.2048,0.2122,0.2152,0.2272,0.2347,0.2493,0.2563,0.2678,0.2614,0.2653,0.2631,0.2579,0.2546,0.2849,0.2254,0.2212,0.2216,0.2221,0.2219,0.2222,0.2224,0.2225,0.2227,0.1905,0.1911,0.1947,0.1977,0.2029,0.2064,0.2066,0.2133,0.2194,0.2243,0.2403,0.2416,0.2441,0.238,0.234,0.2317,0.2477,0.2351,0.2355,0.2365,0.2282,0.2243,0.2242,0.2245,0.2248,0.225,0.2252,0,0.1904,0.1928,0.1966,0.1992,0.2016,0.2053,0.21,0.2062,0.2078,0.212,0.2153,0.1991,0.1955,0.203,0.1933,0.1932,0.1842,0.188,0.1738,0.1771,0.1799,0.1681,0.1485,0.1483,0.148,0.1478,0,0,0.1915,0.1931,0.1932,0.1961,0.1989,0.197,0.1966,0.1907,0.1891,0.1767,0.1726,0.1791,0.1942,0.1667,0.1642,0.1565,0.1642,0.1499,0.2116,0.198,0.2005,0.208,0.1938,0,0,0,0,0]},{"header":{"parameterUnit":"m.s-1","parameterCategory":2,"la1":30.2991,"la2":30.254,"lo1":-89.0895,"lo2":-89.0444,"dy":0.0017,"dx":0.0017,"nx":28,"ny":28,"refTime":"2024-10-11T21:00:00:Z","depth":"2","parameterNumber":3,"parameterNumberName":"V-component_of_CURRENTS"},"data":[0,0,0,0,0,0,0,0,0,0,0,0,0,0,0,0,0,0,0,0,0,0,0,0,0,0,0,0,0,0,0,0,0,0,0,0,0,0,0,0,0,0,0,0,0,0,0,0,0,0,0,0,0,0,0,0,0,0,-0.0045,-0.0045,0,-0.0097,-0.0099,-0.01,-0.0177,-0.0178,-0.0179,-0.0179,-0.0291,-0.0293,-0.0295,0,0,0,0,0,0,0,0,0,0,0,0,0,-0.0071,-0.007,-0.0045,-0.0045,-0.0045,-0.0097,-0.0099,-0.01,-0.0177,-0.0178,-0.0179,-0.018,-0.029,-0.0293,-0.0296,0,0,0,0,0,0,0,0,0,0,0,0,0,-0.009,-0.007,-0.0044,-0.0086,-0.009,-0.0097,-0.0099,-0.01,-0.0176,-0.0178,-0.0179,-0.018,-0.029,-0.0293,-0.0296,-0.0289,0,0,-0.0306,-0.0307,0,0,0,0,0,0,0,0,-0.0089,-0.0089,-0.008,-0.0083,-0.0087,-0.0128,-0.0149,-0.0165,-0.0176,-0.0149,-0.0179,-0.0181,-0.0238,-0.0245,-0.0259,-0.0295,-0.0299,-0.0306,-0.0308,-0.0309,-0.031,0,0,0,0,0,0,0,-0.0087,-0.0088,-0.0071,-0.008,-0.0084,-0.0122,-0.0127,-0.0152,-0.019,-0.0151,-0.0156,-0.0153,-0.0241,-0.0255,-0.0262,-0.0301,-0.0306,-0.0309,-0.0311,-0.0312,-0.0422,-0.0423,0,0,0,0,0,0,-0.0065,-0.0086,-0.0069,-0.0072,-0.0086,-0.012,-0.0125,-0.0117,-0.0189,-0.0199,-0.0152,-0.0157,-0.0249,-0.0258,-0.0266,-0.0326,-0.0309,-0.0312,-0.0314,-0.0421,-0.0422,-0.0423,0,0,0,0,0,0,-0.0066,-0.0063,-0.0067,-0.0077,-0.0079,-0.0117,-0.0109,-0.0118,-0.015,-0.0188,-0.0201,-0.0177,-0.025,-0.0262,-0.0308,-0.0328,-0.0314,-0.0317,-0.042,-0.0421,-0.0423,-0.0404,0,0,0,0,0,0,-0.0066,-0.0063,-0.0069,-0.0075,-0.0078,-0.0084,-0.0107,-0.0118,-0.0143,-0.015,-0.0212,-0.0223,-0.0252,-0.0303,-0.0312,-0.0332,-0.0319,-0.0418,-0.042,-0.0422,-0.0404,-0.0405,-0.0406,0,0,0,0,0,-0.0067,-0.0047,-0.0069,-0.0068,-0.0078,-0.0084,-0.009,-0.0125,-0.0143,-0.016,-0.0203,-0.0222,-0.0321,-0.0306,-0.0316,-0.0338,-0.0418,-0.042,-0.0422,-0.0403,-0.0405,-0.0406,0,0,0,0,0,0,-0.005,-0.0053,-0.0077,-0.0059,-0.0082,-0.0095,-0.0101,-0.0128,-0.0174,-0.0186,-0.0228,-0.0242,-0.0293,-0.0316,-0.0298,-0.0377,-0.0375,-0.0379,-0.0358,-0.036,-0.0361,-0.0326,-0.0322,0,0,0,0,0,-0.0051,-0.0046,-0.0061,-0.0051,-0.0054,-0.0085,-0.0096,-0.0124,-0.0152,-0.0175,-0.0219,-0.0266,-0.0305,-0.0332,-0.0371,-0.0406,-0.0415,-0.043,-0.0431,-0.0432,-0.0411,-0.0442,-0.0444,-0.043,-0.043,-0.043,0,0,-0.0041,-0.0041,-0.004,-0.005,-0.0063,-0.0077,-0.0096,-0.0109,-0.0136,-0.0177,-0.023,-0.027,-0.0315,-0.0362,-0.0387,-0.0387,-0.0445,-0.0435,-0.0435,-0.0413,-0.0445,-0.0446,-0.0447,-0.0432,-0.0432,-0.0431,0,0,-0.0017,-0.0017,-0.0018,-0.0033,-0.0057,-0.0073,-0.0079,-0.0112,-0.0142,-0.0189,-0.0229,-0.0274,-0.034,-0.0374,-0.0398,-0.0425,-0.0448,-0.0452,-0.0432,-0.0463,-0.0463,-0.0464,-0.0487,-0.049,-0.0455,-0.0455,-0.0455,0,-0.0023,-0.0011,-0.002,-0.0029,-0.0033,-0.0069,-0.0078,-0.0109,-0.0164,-0.0176,-0.0207,-0.0293,-0.034,-0.0378,-0.0398,-0.0426,-0.0445,-0.0421,-0.0462,-0.0463,-0.0463,-0.0487,-0.049,-0.0454,-0.0454,-0.0454,-0.0454,0,-0.0007,-0.0008,0.0003,-0.0025,-0.0036,-0.0039,-0.0074,-0.0103,-0.014,-0.0172,-0.0222,-0.0285,-0.0326,-0.0366,-0.0392,-0.0427,-0.044,-0.0457,-0.0451,-0.0463,-0.0488,-0.0492,-0.0453,-0.0453,-0.0454,-0.0454,0,0,0.0004,0.0006,0.0006,0.0001,-0.0031,-0.003,-0.006,-0.0084,-0.0087,-0.0164,-0.0172,-0.026,-0.0283,-0.031,-0.0359,-0.0398,-0.0437,-0.043,-0.0432,-0.0439,-0.0503,-0.0509,-0.0513,-0.0465,-0.0465,-0.0465,-0.0521,0,0.0007,0.0012,0.0007,0.0005,0.001,-0.0017,-0.003,-0.0061,-0.0092,-0.0112,-0.0174,-0.0203,-0.0266,-0.0282,-0.0333,-0.0404,-0.0444,-0.0419,-0.0501,-0.0503,-0.0495,-0.0517,-0.0464,-0.0508,-0.0525,-0.0525,-0.0526,0,0.0015,0.0024,0.003,0.0042,0.0043,0.0033,0.0035,0.0016,-0.0015,-0.0035,-0.0073,-0.0118,-0.0179,-0.0229,-0.0348,-0.0332,-0.0409,-0.0471,-0.0475,-0.0481,-0.0514,-0.0499,-0.0514,-0.0532,-0.0531,-0.0531,-0.053,0,0.0043,0.0045,0.006,0.0058,0.0056,0.0062,0.0062,0.0043,0.0051,0.0026,0.0032,-0.005,-0.0083,-0.0189,-0.033,-0.0336,-0.0462,-0.0483,-0.0559,-0.0561,-0.0529,-0.0526,-0.0558,-0.0558,-0.0558,-0.0558,-0.0558,0,0.0062,0.0073,0.0079,0.0088,0.0126,0.0104,0.0142,0.0132,0.013,0.0152,0.0083,0.0076,-0.0076,-0.0172,-0.03,-0.0442,-0.044,-0.0548,-0.0574,-0.0524,-0.052,-0.0547,-0.0545,-0.056,-0.056,-0.0559,-0.0559,0,0.0088,0.0087,0.0114,0.0127,0.0142,0.017,0.0212,0.0243,0.0227,0.0255,0.0255,0.0171,0.0058,-0.0104,-0.0279,-0.0393,-0.0531,-0.0585,-0.0514,-0.053,-0.0613,-0.061,-0.0654,-0.0654,-0.0655,-0.0655,-0.0656,0,0.01,0.0116,0.0158,0.0203,0.0215,0.0261,0.0306,0.0301,0.0327,0.031,0.0324,0.0233,0.0197,-0.0056,-0.0277,-0.0478,-0.0535,-0.058,-0.058,-0.0601,-0.0623,-0.0619,-0.0615,-0.0537,-0.0537,-0.0536,-0.0536,0,0.0132,0.0146,0.0182,0.027,0.0327,0.0386,0.0432,0.0461,0.0451,0.0491,0.049,0.047,0.0241,0.0056,-0.0234,-0.0375,-0.054,-0.0576,-0.062,-0.052,-0.0496,-0.0516,-0.0515,-0.0531,-0.0532,-0.0532,-0.0532,-0.0533,0.0163,0.02,0.0257,0.0329,0.0412,0.0474,0.0524,0.0588,0.0647,0.0693,0.0628,0.0633,0.0372,0.0056,-0.0208,-0.0485,-0.049,-0.058,-0.058,-0.0581,-0.0556,-0.0534,-0.0572,-0.0572,-0.0573,-0.0573,-0.0574,0,0.0184,0.0228,0.0315,0.0391,0.0472,0.0509,0.0587,0.0657,0.0755,0.0822,0.0857,0.0657,0.045,0.0154,-0.0233,-0.0477,-0.0486,-0.0556,-0.0516,-0.0519,-0.0522,-0.0493,-0.0493,-0.0493,-0.0493,-0.0494,0,0,0.02,0.0258,0.0283,0.0393,0.0474,0.0583,0.0629,0.078,0.0862,0.096,0.0978,0.0927,0.0561,0.0293,-0.005,-0.0267,-0.033,-0.0302,-0.0341,-0.0256,-0.0255,-0.051,-0.0466,0,0,0,0,0]}],[{"header":{"parameterUnit":"m.s-1","parameterCategory":2,"la1":30.2991,"la2":30.254,"lo1":-89.0895,"lo2":-89.0444,"dy":0.0017,"dx":0.0017,"nx":28,"ny":28,"refTime":"2024-10-11T21:00:00:Z","depth":"4","parameterNumber":2,"parameterNumberName":"U-component_of_CURRENTS"},"data":[0,0,0,0,0,0,0,0,0,0,0,0,0,0,0,0,0,0,0,0,0,0,0,0,0,0,0,0,0,0,0,0,0,0,0,0,0,0,0,0,0,0,0,0,0,0,0,0,0,0,0,0,0,0,0,0,0,0,0.0928,0.0929,0,0.0957,0.0957,0.0957,0.0985,0.0986,0.0987,0.0987,0.104,0.1041,0.1042,0,0,0,0,0,0,0,0,0,0,0,0,0,0.0862,0.0863,0.0928,0.0929,0.093,0.0957,0.0957,0.0957,0.0985,0.0986,0.0987,0.0988,0.104,0.1041,0.1042,0,0,0,0,0,0,0,0,0,0,0,0,0,0.0888,0.0863,0.0928,0.0949,0.0952,0.0957,0.0957,0.0957,0.0985,0.0986,0.0987,0.0988,0.104,0.1041,0.1042,0.103,0,0,0.1046,0.1046,0,0,0,0,0,0,0,0,0.0886,0.089,0.0945,0.0948,0.0951,0.0971,0.0953,0.0984,0.0985,0.0969,0.0987,0.0988,0.1021,0.1024,0.1022,0.1033,0.1035,0.1046,0.1047,0.1047,0.1048,0,0,0,0,0,0,0,0.0884,0.0888,0.0937,0.0946,0.0949,0.0945,0.095,0.0959,0.0987,0.0971,0.0973,0.0981,0.1022,0.1021,0.1024,0.1036,0.1046,0.1047,0.1048,0.1048,0.1129,0.1131,0,0,0,0,0,0,0.0888,0.0887,0.0936,0.0938,0.0924,0.0946,0.0951,0.0961,0.0987,0.0992,0.098,0.0983,0.1018,0.1022,0.1026,0.1088,0.1047,0.1048,0.1049,0.1128,0.113,0.1131,0,0,0,0,0,0,0.0886,0.0892,0.0935,0.0915,0.0921,0.0947,0.0957,0.0961,0.0985,0.0995,0.1,0.1003,0.1019,0.1024,0.106,0.1087,0.1049,0.105,0.1126,0.1129,0.1131,0.1164,0,0,0,0,0,0,0.0884,0.0891,0.0907,0.0916,0.0922,0.0953,0.0957,0.0961,0.0988,0.0992,0.1015,0.102,0.102,0.1058,0.1061,0.1088,0.1051,0.1125,0.1127,0.113,0.1161,0.1167,0.1172,0,0,0,0,0,0.0882,0.0895,0.0907,0.0914,0.094,0.0954,0.0957,0.0976,0.0988,0.1,0.1023,0.102,0.1077,0.106,0.1063,0.1091,0.1123,0.1127,0.113,0.1158,0.1166,0.1172,0,0,0,0,0,0,0.0875,0.09,0.0913,0.0935,0.0952,0.0961,0.0977,0.0988,0.1012,0.1026,0.1033,0.1039,0.1083,0.1083,0.1063,0.1125,0.1102,0.1106,0.1123,0.113,0.1135,0.1131,0.1052,0,0,0,0,0,0.0881,0.09,0.0919,0.094,0.0951,0.0968,0.098,0.0994,0.1013,0.1026,0.1044,0.1069,0.1093,0.1109,0.1127,0.1154,0.1165,0.1178,0.1183,0.1188,0.1188,0.1267,0.128,0.1142,0.1142,0.1142,0,0,0.0883,0.0902,0.0912,0.094,0.0957,0.0967,0.0978,0.1004,0.1025,0.1028,0.1069,0.109,0.1106,0.1142,0.1162,0.1148,0.1224,0.1192,0.1195,0.1193,0.1272,0.1286,0.1298,0.1144,0.1144,0.1143,0,0,0.0885,0.0917,0.0928,0.0945,0.0977,0.0985,0.0998,0.1022,0.1051,0.1087,0.1102,0.1142,0.1171,0.1192,0.1204,0.1251,0.1253,0.126,0.1281,0.1359,0.1371,0.1382,0.1371,0.138,0.126,0.126,0.126,0,0.0888,0.0906,0.0933,0.0948,0.0965,0.0994,0.1006,0.1033,0.107,0.1106,0.1111,0.1186,0.1196,0.1248,0.1259,0.1264,0.1282,0.1252,0.1367,0.1378,0.1389,0.1375,0.1385,0.1262,0.1262,0.1262,0.1262,0,0.0889,0.0912,0.0923,0.095,0.0971,0.099,0.1028,0.1068,0.1107,0.1139,0.1218,0.124,0.1296,0.1298,0.1287,0.1365,0.134,0.1367,0.1348,0.1405,0.1386,0.1396,0.1265,0.1264,0.1264,0.1263,0,0,0.0864,0.0913,0.0917,0.0939,0.0977,0.0995,0.1044,0.1099,0.1158,0.1204,0.1273,0.1316,0.1358,0.1374,0.1383,0.1421,0.1487,0.142,0.1424,0.1403,0.1604,0.1494,0.1493,0.1548,0.1551,0.1554,0.1544,0,0.0855,0.0878,0.0909,0.0938,0.0952,0.1008,0.1038,0.1102,0.1187,0.1262,0.1316,0.1386,0.1382,0.142,0.1468,0.1494,0.1523,0.1482,0.1556,0.1556,0.1451,0.1506,0.1563,0.1552,0.1554,0.1556,0.1557,0,0.0832,0.0859,0.0881,0.0937,0.095,0.0979,0.1078,0.1132,0.1247,0.1315,0.142,0.1463,0.1531,0.1523,0.1613,0.1594,0.1604,0.1603,0.1605,0.1501,0.1468,0.1496,0.1575,0.1574,0.1573,0.1571,0.157,0,0.0782,0.0837,0.0859,0.0878,0.0939,0.0987,0.1043,0.1157,0.1226,0.1388,0.1453,0.155,0.1613,0.1664,0.1678,0.1669,0.1743,0.1744,0.1638,0.1627,0.1712,0.1701,0.1809,0.181,0.181,0.181,0.181,0,0.0741,0.076,0.0851,0.0863,0.0916,0.0982,0.1079,0.1166,0.1285,0.1357,0.1503,0.1554,0.1664,0.1711,0.1707,0.1698,0.1794,0.164,0.1638,0.1717,0.1707,0.1715,0.1704,0.1809,0.1809,0.1809,0.1809,0,0.0661,0.0714,0.0757,0.0851,0.0892,0.0949,0.1088,0.1156,0.1296,0.1403,0.1446,0.1584,0.1649,0.1706,0.1766,0.1735,0.1728,0.1697,0.1726,0.1726,0.1536,0.1527,0.1576,0.1572,0.1569,0.1567,0.1565,0,0.0612,0.0622,0.0748,0.0806,0.0862,0.0967,0.102,0.1153,0.1235,0.1387,0.141,0.1518,0.1589,0.1594,0.1659,0.1658,0.1645,0.1633,0.1619,0.1529,0.1523,0.1519,0.1514,0.156,0.1559,0.1559,0.1558,0,0.0527,0.0583,0.063,0.0748,0.0836,0.0919,0.1028,0.1055,0.1188,0.1308,0.136,0.1398,0.1463,0.151,0.1538,0.1528,0.1644,0.1602,0.1608,0.1594,0.1511,0.1506,0.1505,0.1548,0.1549,0.155,0.1551,0,0.0464,0.0498,0.0584,0.068,0.0787,0.0848,0.0916,0.0991,0.1058,0.1216,0.1206,0.1322,0.142,0.1438,0.1444,0.1454,0.1432,0.1405,0.142,0.1432,0.1395,0.1268,0.1234,0,0,0,0,0,0.0397,0.0439,0.0518,0.0619,0.0718,0.0778,0.0897,0.096,0.1063,0.107,0.1141,0.1184,0.1228,0.1288,0.1268,0.1362,0.1426,0.1334,0.1399,0.1491,0.1503,0.1475,0,0,0,0,0,0,0.0371,0.0429,0.0478,0.0538,0.0593,0.0681,0.0748,0.082,0.0851,0.0968,0.1008,0.1106,0.1174,0.1212,0.1236,0.1253,0.1273,0.1403,0.14,0.1484,0.1495,0.1504,0.148,0,0,0,0,0]},{"header":{"parameterUnit":"m.s-1","parameterCategory":2,"la1":30.2991,"la2":30.254,"lo1":-89.0895,"lo2":-89.0444,"dy":0.0017,"dx":0.0017,"nx":28,"ny":28,"refTime":"2024-10-11T21:00:00:Z","depth":"4","parameterNumber":3,"parameterNumberName":"V-component_of_CURRENTS"},"data":[0,0,0,0,0,0,0,0,0,0,0,0,0,0,0,0,0,0,0,0,0,0,0,0,0,0,0,0,0,0,0,0,0,0,0,0,0,0,0,0,0,0,0,0,0,0,0,0,0,0,0,0,0,0,0,0,0,0,0.0141,0.0141,0,0.0126,0.0126,0.0126,0.011,0.0109,0.0109,0.0109,0.0077,0.0076,0.0075,0,0,0,0,0,0,0,0,0,0,0,0,0,0.0149,0.0149,0.0141,0.0141,0.0141,0.0126,0.0126,0.0126,0.011,0.0109,0.0109,0.0109,0.0077,0.0076,0.0075,0,0,0,0,0,0,0,0,0,0,0,0,0,0.0141,0.0149,0.0141,0.0131,0.013,0.0126,0.0126,0.0126,0.011,0.0109,0.0109,0.0109,0.0077,0.0076,0.0075,0.0076,0,0,0.0072,0.0072,0,0,0,0,0,0,0,0,0.0141,0.014,0.0132,0.0131,0.013,0.0119,0.0117,0.0108,0.011,0.0117,0.0109,0.0108,0.0089,0.0087,0.0086,0.0075,0.0074,0.0072,0.0072,0.0071,0.0071,0,0,0,0,0,0,0,0.0142,0.0141,0.0135,0.0132,0.0131,0.0125,0.0123,0.0115,0.0105,0.0117,0.0115,0.0114,0.0089,0.0087,0.0085,0.0073,0.0072,0.0071,0.0071,0.007,0.0081,0.0081,0,0,0,0,0,0,0.0144,0.0142,0.0136,0.0135,0.0135,0.0125,0.0123,0.0123,0.0106,0.0103,0.0114,0.0113,0.0089,0.0086,0.0084,0.0116,0.0071,0.007,0.007,0.008,0.0081,0.0082,0,0,0,0,0,0,0.0145,0.0144,0.0136,0.0138,0.0136,0.0125,0.0125,0.0123,0.0123,0.0104,0.0101,0.0116,0.0088,0.0085,0.0086,0.0113,0.007,0.0069,0.0079,0.008,0.0081,0.016,0,0,0,0,0,0,0.0145,0.0144,0.0147,0.0138,0.0136,0.0142,0.0125,0.0123,0.0122,0.0121,0.0105,0.0101,0.0088,0.0088,0.0085,0.0111,0.0068,0.0078,0.0079,0.0081,0.0156,0.0163,0.017,0,0,0,0,0,0.0145,0.0152,0.0148,0.0147,0.014,0.0142,0.0141,0.0132,0.0123,0.0129,0.0119,0.0102,0.0096,0.0088,0.0084,0.0111,0.0077,0.0079,0.0081,0.0153,0.0162,0.017,0,0,0,0,0,0,0.0154,0.015,0.0146,0.015,0.0149,0.014,0.0143,0.0136,0.0133,0.0132,0.0111,0.0108,0.012,0.0101,0.0092,0.0117,0.0084,0.0085,0.014,0.0148,0.0155,0.0148,0.0067,0,0,0,0,0,0.0158,0.0163,0.0158,0.0162,0.0163,0.0154,0.0153,0.015,0.0144,0.0142,0.0133,0.0124,0.0126,0.0125,0.0119,0.0131,0.0079,0.0145,0.0152,0.0158,0.015,0.0093,0.0094,0.0088,0.0088,0.0088,0,0,0.0161,0.0161,0.0162,0.0164,0.0162,0.0183,0.0153,0.0159,0.0181,0.014,0.0163,0.0147,0.0133,0.0151,0.0155,0.0139,0.0133,0.016,0.0166,0.0154,0.0095,0.0096,0.0096,0.0089,0.0089,0.0089,0,0,0.0183,0.0171,0.0191,0.0197,0.0201,0.02,0.0205,0.0203,0.0205,0.0222,0.0203,0.0197,0.0201,0.0195,0.0193,0.0231,0.0172,0.0235,0.0266,0.0213,0.0213,0.0211,0.0148,0.0141,0.0239,0.024,0.024,0,0.0187,0.0214,0.0196,0.0223,0.0234,0.0214,0.0246,0.025,0.025,0.0246,0.0241,0.0228,0.0223,0.0231,0.0254,0.0248,0.0198,0.024,0.0221,0.0219,0.0216,0.0152,0.0142,0.0244,0.0243,0.0243,0.0242,0,0.0232,0.0255,0.0267,0.0298,0.0306,0.0326,0.0331,0.0334,0.0331,0.0326,0.0324,0.0307,0.0289,0.0302,0.0296,0.0286,0.025,0.0236,0.0199,0.0221,0.0152,0.0141,0.0249,0.0248,0.0247,0.0246,0,0,0.0238,0.029,0.0297,0.0322,0.0348,0.0355,0.0387,0.0398,0.0394,0.0397,0.0383,0.0403,0.0364,0.0358,0.0339,0.0308,0.0265,0.0273,0.0268,0.0208,0.013,0.0134,0.0122,0.0243,0.0242,0.0241,0.0089,0,0.0283,0.0352,0.0365,0.0423,0.0455,0.0445,0.0465,0.0465,0.0455,0.0432,0.0406,0.0389,0.0396,0.0374,0.035,0.0275,0.0239,0.0306,0.0118,0.0112,0.0112,0.0111,0.0236,0.0081,0.0078,0.0076,0.0075,0,0.0331,0.0368,0.044,0.0474,0.0482,0.051,0.0507,0.0525,0.049,0.047,0.0442,0.04,0.0362,0.0355,0.0244,0.0283,0.0217,0.0163,0.0155,0.012,0.0096,0.0052,0.0054,0.0056,0.0057,0.0059,0.006,0,0.0349,0.0418,0.0476,0.0494,0.0528,0.0542,0.0553,0.0534,0.053,0.0483,0.045,0.0393,0.035,0.0264,0.018,0.0194,0.0038,0.0035,-0.0026,-0.0028,-0.0022,-0.0019,-0.0051,-0.0051,-0.0051,-0.005,-0.005,0,0.0394,0.0434,0.0487,0.0517,0.0543,0.0562,0.0569,0.0561,0.0535,0.0521,0.0468,0.0428,0.0325,0.0233,0.0153,0.0031,0.0012,-0.0032,-0.0066,0.0016,0.0024,-0.003,-0.0026,-0.0056,-0.0055,-0.0053,-0.0053,0,0.0399,0.0451,0.0499,0.0545,0.0559,0.057,0.0586,0.0574,0.0559,0.0533,0.0514,0.0434,0.0318,0.0207,0.0052,-0.0002,-0.0125,-0.0159,-0.0075,-0.01,-0.0156,-0.0146,-0.027,-0.0271,-0.0272,-0.0273,-0.0274,0,0.041,0.0443,0.0503,0.0516,0.0539,0.0563,0.0564,0.0579,0.0578,0.0542,0.0524,0.0415,0.0352,0.0129,0.002,-0.0165,-0.0166,-0.0244,-0.0182,-0.0158,-0.0179,-0.0167,-0.0156,-0.0275,-0.0275,-0.0276,-0.0276,0,0.0396,0.042,0.0447,0.0484,0.0506,0.0535,0.0562,0.0566,0.0581,0.0564,0.0518,0.0412,0.0279,0.013,-0.001,-0.013,-0.0206,-0.0254,-0.0252,-0.0195,-0.0165,-0.0183,-0.017,-0.0279,-0.0279,-0.0278,-0.0278,0,0.0357,0.0361,0.0399,0.0433,0.0461,0.0507,0.0528,0.0541,0.0551,0.0544,0.0527,0.0401,0.0336,0.0146,0.0018,-0.0105,-0.0129,-0.0161,-0.0165,-0.0163,-0.0068,-0.001,-0.0115,0,0,0,0,0,0.0312,0.0327,0.0343,0.0394,0.0429,0.0472,0.0516,0.054,0.0573,0.0544,0.0548,0.0434,0.0249,0.0163,0.0039,-0.0012,-0.0163,-0.0163,-0.0204,-0.0297,-0.0294,-0.0197,0,0,0,0,0,0,0.028,0.0294,0.0326,0.0367,0.0403,0.0456,0.0499,0.0527,0.0523,0.0535,0.0438,0.0406,0.0221,0.0325,0.004,0.0001,-0.0042,-0.0245,-0.0247,-0.03,-0.0296,-0.0293,-0.0192,0,0,0,0,0]}]]